Regional Weather Roundup
Issued by NWS

Home | Current Version | Previous Version | Text Only | Print | Product List | Glossary Off
Versions: 1 2 3 4 5 6 7 8 9 10 11 12 13 14 15 16 17 18 19 20 21 22 23 24 25 26 27 28 29 30 31 32 33 34 35 36 37 38 39 40 41 42 43 44 45 46 47 48 49 50

000
ASUS43 KMKX 291511
RWRWI

WISCONSIN REGIONAL WEATHER ROUNDUP
NATIONAL WEATHER SERVICE MILWAUKEE/SULLIVAN WI
1000 AM CDT WED MAR 29 2017

NOTE: "FAIR" INDICATES FEW OR NO CLOUDS BELOW 12,000 FEET WITH NO
SIGNIFICANT WEATHER AND/OR OBSTRUCTIONS TO VISIBILITY.

WIZ001-002-006>008-014>016-023>028-291600-
NORTHWEST WISCONSIN

CITY           SKY/WX    TMP DP  RH WIND       PRES   REMARKS
SUPERIOR ARPT  CLOUDY    36  32  87 NE14G21   30.34S WCI  27
ASHLAND        NOT AVBL
HAYWARD        CLOUDY    42  30  62 E3        30.28S
SIREN          CLOUDY    38  30  72 CALM      30.28S
CUMBERLAND     CLOUDY    41  28  60 SE7       30.27R
RICE LAKE      CLOUDY    43  29  59 CALM      30.29R
CHETEK         CLOUDY    42  32  68 E3        30.28R
LADYSMITH      CLOUDY    42  30  62 E6        30.30R
EAU CLAIRE     CLOUDY    43  29  57 E7        30.27R
MENOMONIE      CLOUDY    42  32  67 E7        30.27S
NEW RICHMOND   CLOUDY    44  32  62 E6        30.25S
OSCEOLA        CLOUDY    45  33  64 E8        30.28S
$$

WIZ003>005-009-010-017-018-291600-
NORTH CENTRAL WISCONSIN

CITY           SKY/WX    TMP DP  RH WIND       PRES   REMARKS
MANITOWISH WTR CLOUDY    39  27  62 E3        30.30R
ARBOR VITAE    CLOUDY    39  28  62 SE7       30.30R WCI  34
WOODRUFF       CLOUDY    39  28  62 SE7       30.30R WCI  34
RHINELANDER    CLOUDY    42  28  57 E10       30.30R
EAGLE RIVER    CLOUDY    39  26  58 SE6       30.31R WCI  35
LAND O LAKES   MOSUNNY   39  28  63 E5        30.33R
PHILLIPS       CLOUDY    43  28  56 SE7       30.28R
TOMAHAWK       CLOUDY    40  28  61 CALM      30.30S
MEDFORD        PTSUNNY   38  28  66 E7        30.27S WCI  33
MERRILL        CLOUDY    39  29  66 E5        30.31R
$$

WIZ029-030-035-036-043>047-291600-
CENTRAL WISCONSIN

CITY           SKY/WX    TMP DP  RH WIND       PRES   REMARKS
WAUSAU         CLOUDY    39  28  64 E6        30.29R WCI  35
MOSINEE        PTSUNNY   39  28  65 E12       30.30S WCI  32
MARSHFIELD     PTSUNNY   40  29  64 E12       30.28R WCI  33
STEVENS POINT  CLOUDY    39  28  64 E8        30.30S WCI  34
WAUPACA        CLOUDY    42  32  68 NE6       30.31S
WAUTOMA        CLOUDY    41  32  70 E9        30.31R
WISC RAPIDS    PTSUNNY   43  30  60 E12       30.30R
CAMP DOUGLAS   PTSUNNY   39  34  81 CALM      30.29R
$$

WIZ011>013-019>022-031-037>040-048>050-291600-
NORTHEAST WISCONSIN

CITY           SKY/WX    TMP DP  RH WIND       PRES   REMARKS
ANTIGO         CLOUDY    38  28  69 SE7       30.31R WCI  32
SHAWANO        CLOUDY    39  32  77 NE7       30.33F WCI  34
OCONTO         PTSUNNY   38  31  78 NE5       30.34F WCI  34
STURGEON BAY   CLOUDY    38  32  79 NE9       30.32F WCI  31
GREEN BAY      PTSUNNY   38  35  89 NE12      30.33S WCI  30
MANITOWOC      MOSUNNY   41  36  82 VRB7      30.32F
APPLETON       PTSUNNY   37  30  75 NE12      30.29S WCI  30
CLINTONVILLE   CLOUDY    39  30  70 NE9       30.31F WCI  33
OSHKOSH        CLOUDY    40  33  76 NE6       30.30R
$$

WIZ032>034-041-042-053>061-291600-
SOUTHWEST WISCONSIN

CITY           SKY/WX    TMP DP  RH WIND       PRES   REMARKS
LA CROSSE      CLOUDY    44  34  67 E7        30.26S
SPARTA         CLOUDY    41  34  76 E7        30.29R
VIROQUA        CLOUDY    39  35  86 CALM      30.25S
BOSCOBEL       CLOUDY    42  37  82 NE7       30.25F
PRAIRIE DU CHI CLOUDY    42  35  76 E5        30.23F
PLATTEVILLE    CLOUDY    41  39  91 E14       30.22F
$$

WIZ056-057-062-063-064-067-068-291600-
SOUTH CENTRAL WISCONSIN

CITY           SKY/WX    TMP DP  RH WIND       PRES   REMARKS
REEDSBURG      CLOUDY    38  35  89 E3        30.28R
BARABOO/DELLS  CLOUDY    37  33  85 E5        30.28R WCI  34
LONE ROCK      CLOUDY    40  36  86 SE5       30.26F FOG
MINERAL POINT  PTSUNNY   43  36  75 E10       30.22F
MADISON        CLOUDY    39  35  86 E7        30.27R WCI  34
MIDDLETON      CLOUDY    39  37  94 NE5       30.27F
WATERTOWN      CLOUDY    42  40  93 E5        30.29R
MONROE         CLOUDY    37  37 100 NE8       30.23F WCI  31
JANESVILLE     CLOUDY    41  39  93 NE8       30.27R
$$

WIZ051-052-058>065-066-070>072-291600-
SOUTHEAST WISCONSIN

CITY           SKY/WX    TMP DP  RH WIND       PRES   REMARKS
MILWAUKEE      CLOUDY    42  38  85 NE9       30.30R
WAUKESHA       PTSUNNY   37  37 100 NE9       30.30R WCI  31
MILWAUKEE/TIMM SUNNY     39  37  93 NE7       30.29S WCI  34
RACINE         CLOUDY    38  37  97 NE8       30.31R WCI  32
KENOSHA        PTSUNNY   41  37  86 E9        30.28R
FOND DU LAC    CLOUDY    44  36  73 E6        30.30R
SHEBOYGAN      CLOUDY    42  38  85 NE13      30.30S
WEST BEND      PTSUNNY   39  39 100 E6        30.30R WCI  35
JUNEAU         CLOUDY    40  37  87 NE5       30.30R
$$

LSZ147-162-291600-
LAKE SUPERIOR

STATION/POSITION TIME  TEMP    WIND        PRES    WAVE
                       AIR SEA DIR/SP/G            HT/PER
                 (UTC) (F)     (DEG/KT/KT) (MB)    (FT/S)
DEVILS ISLAND    1400   34      70/ 16/ 18 1028.8R
PORT WING        1430   35      30/ 13/ 17 1027.1F
SAXON HARBOR     1440   35     310/  2/  3 1026.8S
$$

LMZ867-665-643>646-291600-
LAKE MICHIGAN

STATION/POSITION TIME  TEMP    WIND        PRES    WAVE
                       AIR SEA DIR/SP/G            HT/PER
                 (UTC) (F)     (DEG/KT/KT) (MB)    (FT/S)
CHAMBERS ISLAND  1440   33      20/ 12/ 14 1027.8R
NORTHPORT PIER   1440   35      50/  8/ 11 1028.1R
SISTER BAY       1236   37      30/  5/  8   N/A
KEWAUNEE LAKESHO 1448   36      40/ 10/ 14 1026.7R
SHEBOYGAN LAKESH 1500   37      20/ 11/ 12 1026.9R
PORT WASHINGTON  1440   40      40/  8/ 10 1026.4F
MILWAUKEE LAKESH 1450   37      30/  8/ 10   N/A
KENOSHA   LAKESH 1500   36      30/  9/ 10 1025.7
$$

TC  - TEMPERATURE IN CELSIUS
VSB - VISIBILITY IN STATUTE MILES
WCI - WIND CHILL INDEX
HX  - HEAT INDEX




USA.gov is the U.S. government's official web portal to all federal, state and local government web resources and services.